Home   Weather   Taiyuan   Past weeks

Flag for China Past Weather in Taiyuan, Shanxi, China — Yesterday and Last 2 Weeks

Now
32 °F

Clear.


Feels Like: 32 °F
Forecast: 27 / 43 °F
Wind: 1 mph from East

Location: Taiyuan Airport

Current Time: Dec 6, 2016 at 11:09:47 am

Latest Report: Dec 6, 2016 at 10:30 am


Visibility: 4 mi

Pressure: 30.24 "Hg (27.39 "Hg at 790m altitude)

Humidity: 51%

Dew Point: 16 °F

Location of TaiyuanLocation

Past Weather in Taiyuan — Graph

°F

Taiyuan Temperature Yesterday

Maximum temperature yesterday: 43 °F (at 3:00 pm)
Minimum temperature yesterday: 27 °F (at 10:00 pm)
Average temperature yesterday: 34 °F

High & Low Weather Summary for the Past Weeks

 TemperatureHumidityPressure
High50 °F (Dec 4, 2:30 pm)100% (Nov 29, 3:30 pm)30.60 "Hg (Nov 29, 3:30 pm)
Low12 °F (Nov 24, 7:00 am)14% (Nov 23, 1:30 pm)29.92 "Hg (Dec 4, 3:00 pm)
Average32 °F57%30.31 "Hg
* Reported Nov 21 9:00 am — Dec 6 9:30 am, Taiyuan, Weather by CustomWeather, © 2016

Note: Actual official high and low records may vary slightly from our data, if they occured in-between our weather recording intervals... More about our weather records

Advertising

Taiyuan Weather History for the Previous 24 Hours

Scroll right to see more
 ConditionsComfort  
Time TempWeatherWind HumidityBarometerVisibility
9:30 am
Tue, Dec 6
28 °FClear.1 mph64%30.27 "Hg4 mi
9:00 am27 °FClear.1 mph69%30.27 "Hg2 mi
8:30 am23 °FSunny.1 mph74%30.27 "Hg10 mi
8:00 am21 °FSunny.1 mph74%30.27 "Hg10 mi
7:30 am19 °FClear.1 mph73%30.27 "Hg10 mi
7:00 am19 °FClear.1 mph79%30.27 "Hg10 mi
6:30 am19 °FClear.1 mph79%30.27 "Hg10 mi
6:00 am19 °FClear.6 mph79%30.30 "Hg10 mi
5:30 am19 °FClear.3 mph79%30.30 "Hg10 mi
5:00 am21 °FClear.1 mph74%30.33 "Hg10 mi
4:30 am21 °FClear.1 mph80%30.33 "Hg10 mi
4:00 am19 °FClear.1 mph79%30.36 "Hg10 mi
3:30 am21 °FClear.1 mph74%30.36 "Hg10 mi
3:00 am23 °FClear.1 mph68%30.39 "Hg4 mi
2:30 am21 °FClear.3 mph74%30.39 "Hg10 mi
2:00 am21 °FClear.3 mph80%30.42 "Hg10 mi
1:30 am23 °FClear.1 mph68%30.42 "Hg10 mi
1:00 am23 °FClear.3 mph74%30.42 "Hg10 mi
12:30 am25 °FClear.1 mph69%30.45 "Hg10 mi
12:00 am25 °FClear.1 mph69%30.45 "Hg10 mi
11:30 pm
Mon, Dec 5
27 °FClear.1 mph59%30.45 "Hg10 mi
11:00 pm27 °FClear.1 mph59%30.45 "Hg10 mi
10:30 pm27 °FClear.1 mph59%30.45 "Hg10 mi
10:00 pm27 °FClear.3 mph59%30.48 "Hg10 mi
9:30 pm28 °FClear.1 mph55%30.48 "Hg10 mi
9:00 pm30 °FClear.3 mph51%30.48 "Hg10 mi
8:30 pm30 °FClear.3 mph43%30.48 "Hg10 mi
8:00 pm34 °FPassing clouds.3 mph29%30.48 "HgN/A
7:30 pm34 °FClear.3 mph32%30.48 "Hg10 mi
7:00 pm32 °FClear.8 mph37%30.48 "Hg10 mi
6:30 pm30 °FClear.8 mph40%30.48 "Hg10 mi
6:00 pm34 °FClear.6 mph29%30.48 "Hg10 mi
5:30 pm36 °FClear.13 mph27%30.48 "Hg10 mi
5:00 pm37 °FSunny.10 mph26%30.45 "Hg10 mi
4:30 pm39 °FSunny.15 mph24%30.45 "Hg10 mi
4:00 pm41 °FSunny.15 mph24%30.45 "Hg10 mi
3:30 pm41 °FSunny.13 mph24%30.45 "Hg10 mi
3:00 pm43 °FSunny.10 mph21%30.45 "Hg10 mi
2:30 pm41 °FPassing clouds.10 mph24%30.45 "HgN/A
2:00 pm41 °FSunny.3 mph31%30.45 "Hg10 mi
1:30 pm41 °FSunny.1 mph33%30.45 "Hg10 mi
1:00 pm39 °FPassing clouds.6 mph36%30.45 "HgN/A
12:30 pm39 °FPassing clouds.3 mph39%30.45 "HgN/A
12:00 pm39 °FSunny.3 mph39%30.45 "Hg10 mi
11:30 am37 °FSunny.13 mph41%30.45 "Hg10 mi
11:00 am37 °FSunny.15 mph45%30.42 "Hg10 mi
Weather by CustomWeather, © 2016

See weather overviewHow to use our weather pages